Orbital Elements at Epoch 2459200.5 (2020-Dec-17.0) TDB
Reference: JPL 13 (heliocentric ecliptic J2000)
Element | Value | Uncertainty (1-sigma) | Units |
e | .1108554501746161 | 4.9723e-08 | |
a | 3.914214682828166 | 7.3126e-08 | au |
q | 3.480302652083157 | 2.1173e-07 | au |
i | 2.441312190681836 | 6.4005e-06 | deg |
node | 291.6196224273913 | 0.00015226 | deg |
peri | 303.5205847900045 | 0.00015617 | deg |
M | 326.4057862447243 | 3.7765e-05 | deg |
tp | 2459464.453466470931 (2021-Sep-06.95346647) | 0.00030004 | TDB |
period | 2828.559960407247 7.74 | 7.9265e-05 2.17e-07 | d yr |
n | .127273243289553 | 3.5666e-09 | deg/d |
Q | 4.348126713573174 | 8.1232e-08 | au |
|
| | Orbit Determination Parameters
Additional Information
|